Location: Newark
(48.5667°N, 7.8167°E)
Time: 18:30:40
(UTC+00:00)

JY1SAT - Visible Passes

Search period start: 23 July 2021 00:00
Search period end: 02 August 2021 00:00
Orbit: 570 x 589 km, 97.7° (Epoch: 23 July)

Date Brightness Start Highest point End Pass type
(mag) Time Alt. Az. Time Alt. Az. Time Alt. Az.
23 Jul ? 20:42:28 17° SSE 20:45:33 56° ENE 20:49:39 10° N visible
23 Jul ? 22:18:48 10° SW 22:21:14 16° W 22:23:48 10° NW visible
24 Jul ? 20:47:22 18° SSE 20:50:20 63° ENE 20:54:28 10° N visible
24 Jul ? 22:23:50 10° WSW 22:26:05 14° W 22:28:20 10° NW visible
25 Jul ? 20:52:15 19° SSE 20:55:06 71° ENE 20:59:17 10° N visible
25 Jul ? 22:29:04 10° WSW 22:30:56 13° W 22:32:48 10° WNW visible
26 Jul ? 20:57:09 21° SSE 20:59:53 80° ENE 21:04:05 10° N visible
26 Jul ? 22:34:27 10° WSW 22:35:46 11° W 22:37:06 10° WNW visible
27 Jul ? 21:02:02 22° SSE 21:04:40 89° ENE 21:08:52 10° NNW visible
28 Jul ? 21:06:56 23° S 21:09:28 82° WSW 21:13:40 10° NNW visible
29 Jul ? 21:11:50 24° S 21:14:15 73° WSW 21:18:26 10° NNW visible
30 Jul ? 21:16:44 25° S 21:19:02 65° WSW 21:23:13 10° NNW visible
31 Jul ? 19:46:13 10° ESE 19:48:56 17° ENE 19:51:40 10° NNE visible
31 Jul ? 21:21:38 26° S 21:23:50 58° W 21:27:59 10° NNW visible
01 Aug ? 19:50:44 10° ESE 19:53:40 19° ENE 19:56:36 10° NNE visible
01 Aug ? 21:26:32 26° SSW 21:28:38 51° W 21:32:44 10° NNW visible
